FW5918 Weather Reports


Display with metric or nautical units.
time (UTC)temp
F
wind
direction
speed
MPH
gust
MPH
rain 1hr
in
rain 24hr
in
rain mn
in
humidity
%
barometer
mb
20221209154820 53 14 17.0 22.0 0.00 0.00 0.00 80 1022.4
20221209153818 53 18 16.0 21.0 0.00 0.00 0.00 80 1022.4
20221209152818 53 27 16.0 21.0 0.00 0.00 0.00 81 1022.5
20221209151823 53 16 16.0 22.0 0.00 0.00 0.00 80 1022.5
20221209151818 53 5 16.0 22.0 0.00 0.00 0.00 80 1022.5
20221209145818 54 15 15.0 22.0 0.00 0.00 0.00 79 1022.5
20221209144820 54 22 14.0 20.0 0.00 0.00 0.00 79 1022.7
20221209143819 54 14 15.0 22.0 0.00 0.00 0.00 77 1022.5
20221209142819 54 21 14.0 20.0 0.00 0.00 0.00 78 1022.5
20221209141820 54 31 15.0 20.0 0.00 0.00 0.00 77 1022.6
20221209140813 54 30 16.0 24.0 0.00 0.00 0.00 78 1022.4
20221209135814 54 28 18.0 24.0 0.00 0.00 0.00 77 1022.0
20221209134813 54 42 18.0 25.0 0.00 0.00 0.00 77 1022.0
20221209134315 54 37 15.0 23.0 0.00 0.00 0.00 77 1022.1
20221209132812 53 22 18.0 24.0 0.00 0.00 0.00 77 1022.1
20221209131812 54 34 15.0 22.0 0.00 0.00 0.00 77 1022.0
20221209130812 54 30 16.0 23.0 0.00 0.00 0.00 77 1022.1
20221209125814 53 34 20.0 23.0 0.00 0.00 0.00 77 1022.0
20221209124814 0 0.0 0.0 0.00 0.00 0.00 1021.8
20221209123815 0 0.0 0.0 0.00 0.00 0.00 1021.8
20221209122812 0 0.0 0.0 0.00 0.00 0.00 1021.8
20221209122219 0 0.0 0.0 0.00 0.00 0.00 1021.8
20221209121215 54 28 20.0 14.0 0.00 0.00 0.00 76 1021.7
20221209115653 54 28 20.0 26.0 0.00 0.00 0.00 76 1021.7
20221209114650 54 19 19.0 26.0 0.00 0.00 0.00 76 1021.4
20221209113651 54 36 19.0 25.0 0.00 0.00 0.00 76 1021.7
20221209112650 54 17 18.0 24.0 0.00 0.00 0.00 76 1021.7
20221209111651 54 39 17.0 23.0 0.00 0.00 0.00 76 1021.5
20221209110650 54 42 17.0 24.0 0.00 0.00 0.00 76 1021.3
20221209105650 54 35 16.0 22.0 0.00 0.00 0.00 75 1021.5
20221209104650 54 55 17.0 22.0 0.00 0.00 0.00 75 1021.3
20221209103652 55 42 19.0 23.0 0.00 0.00 0.00 76 1021.1
20221209102647 55 38 17.0 23.0 0.00 0.00 0.00 76 1021.3
20221209101646 55 17 16.0 23.0 0.00 0.00 0.00 77 1021.3
20221209101153 55 37 18.0 22.0 0.00 0.00 0.00 78 1021.3
20221209100646 55 21 16.0 22.0 0.00 0.00 0.00 78 1021.3
20221209094647 55 34 18.0 22.0 0.00 0.00 0.00 79 1021.3
20221209093648 55 32 17.0 21.0 0.00 0.00 0.00 79 1021.2
20221209092648 55 53 17.0 20.0 0.00 0.00 0.00 79 1021.2
20221209091652 55 53 19.0 23.0 0.00 0.00 0.00 80 1021.0
20221209091648 55 50 19.0 23.0 0.00 0.00 0.00 80 1021.1
20221209085645 55 46 20.0 24.0 0.00 0.00 0.00 80 1021.2
20221209084645 55 60 20.0 24.0 0.00 0.00 0.00 80 1021.3
20221209083645 55 50 21.0 25.0 0.00 0.00 0.00 80 1021.3
20221209082642 56 46 21.0 26.0 0.00 0.00 0.00 80 1021.4
20221209081642 56 49 21.0 26.0 0.00 0.00 0.00 80 1021.3
20221209080643 56 44 22.0 26.0 0.00 0.00 0.00 79 1021.4
20221209075643 56 45 21.0 25.0 0.00 0.00 0.00 79 1021.4
20221209075143 56 39 21.0 25.0 0.00 0.00 0.00 78 1021.5
20221209074144 56 41 20.0 24.0 0.00 0.00 0.00 76 1021.6
20221209072644 56 44 21.0 26.0 0.00 0.00 0.00 75 1021.7
20221209072144 56 44 21.0 25.0 0.00 0.00 0.00 76 1021.8
20221209070642 56 47 20.0 25.0 0.00 0.00 0.00 76 1021.8
20221209065644 56 48 20.0 25.0 0.00 0.00 0.00 75 1021.8
20221209064643 56 51 21.0 24.0 0.00 0.00 0.00 75 1021.6
20221209063643 56 36 21.0 25.0 0.00 0.00 0.00 76 1021.8
20221209062643 56 42 20.0 24.0 0.00 0.00 0.00 75 1021.9
20221209062143 56 36 19.0 24.0 0.00 0.00 0.00 75 1021.8
20221209060642 56 44 20.0 24.0 0.00 0.00 0.00 75 1021.8
20221209055643 56 41 19.0 23.0 0.00 0.00 0.00 75 1021.8
20221209054646 56 41 19.0 25.0 0.00 0.00 0.00 75 1021.8
20221209053642 56 46 20.0 25.0 0.00 0.00 0.00 74 1021.7
20221209052643 56 46 20.0 24.0 0.00 0.00 0.00 75 1021.9
20221209051637 56 43 20.0 24.0 0.00 0.00 0.00 75 1021.7
20221209050638 56 46 19.0 23.0 0.00 0.00 0.00 76 1022.0
20221209050138 56 45 18.0 22.0 0.00 0.00 0.00 77 1021.8
20221209044645 56 49 19.0 24.0 0.00 0.00 0.00 76 1021.8
20221209044638 56 34 20.0 24.0 0.00 0.00 0.00 76 1022.0
20221209042636 56 46 18.0 22.0 0.00 0.00 0.00 76 1021.8
20221209041635 56 42 19.0 21.0 0.00 0.00 0.00 76 1021.8
20221209040635 56 46 19.0 23.0 0.00 0.00 0.00 76 1022.0
20221209035636 56 50 17.0 21.0 0.00 0.00 0.00 77 1022.0
20221209034629 56 67 18.0 21.0 0.00 0.00 0.00 77 1021.8
20221209033628 56 51 17.0 21.0 0.00 0.00 0.00 77 1022.0
20221209033131 56 41 18.0 21.0 0.00 0.00 0.00 77 1022.1
20221209031630 56 51 18.0 21.0 0.00 0.00 0.00 77 1022.1
20221209030629 56 46 18.0 22.0 0.00 0.00 0.00 76 1021.9
20221209025630 56 45 18.0 22.0 0.00 0.00 0.00 76 1022.1
20221209024628 56 48 19.0 23.0 0.00 0.00 0.00 76 1022.3
20221209023629 56 42 20.0 24.0 0.00 0.00 0.00 76 1022.0
20221209022629 56 40 20.0 25.0 0.00 0.00 0.00 77 1022.0
20221209021629 56 38 19.0 23.0 0.00 0.00 0.00 77 1022.1
20221209021130 56 42 18.0 22.0 0.00 0.00 0.00 78 1022.7
20221209015629 56 38 17.0 22.0 0.00 0.00 0.00 78 1022.7
20221209015129 56 42 16.0 21.0 0.00 0.00 0.00 78 1022.6
20221209014130 56 41 18.0 23.0 0.00 0.00 0.00 77 1022.4
20221209013131 56 36 20.0 24.0 0.00 0.00 0.00 78 1021.8
20221209011630 56 42 20.0 23.0 0.00 0.00 0.00 78 1021.9
20221209010629 56 37 20.0 25.0 0.00 0.00 0.00 78 1022.0
20221209005626 56 36 19.0 24.0 0.00 0.00 0.00 77 1022.1
20221209004627 56 30 18.0 23.0 0.00 0.00 0.00 78 1022.4
20221209004127 56 16 18.0 24.0 0.00 0.00 0.00 78 1022.4
20221209002627 56 30 19.0 24.0 0.00 0.00 0.00 79 1022.3
20221209001627 56 46 17.0 24.0 0.00 0.01 0.00 79 1022.3
20221209000626 56 19 19.0 24.0 0.00 0.01 0.00 79 1022.0
20221209000128 56 26 20.0 25.0 0.00 0.02 0.00 79 1022.0
20221208234626 57 41 19.0 24.0 0.00 0.05 0.00 79 1021.9
20221208233627 57 37 18.0 23.0 0.00 0.06 0.00 79 1022.0
20221208232627 57 41 16.0 23.0 0.00 0.06 0.00 79 1022.1
20221208231626 56 49 18.0 26.0 0.00 0.08 0.00 78 1022.3
20221208231128 57 27 17.0 23.0 0.00 0.10 0.00 78 1022.1
20221208225628 57 40 17.0 22.0 0.00 0.10 0.00 79 1021.9
20221208225127 57 38 18.0 22.0 0.00 0.10 0.00 78 1021.9
20221208223629 57 41 19.0 24.0 0.00 0.10 0.00 78 1022.1
20221208222628 57 20 20.0 24.0 0.00 0.11 0.00 78 1021.8
20221208221622 57 42 20.0 25.0 0.00 0.11 0.00 77 1021.5
20221208220622 57 52 19.0 24.0 0.00 0.11 0.00 77 1021.9
20221208215628 57 57 20.0 25.0 0.00 0.11 0.00 78 1021.3
20221208215622 57 41 19.0 23.0 0.00 0.11 0.00 78 1021.8
20221208213622 57 54 19.0 24.0 0.00 0.11 0.00 77 1021.7
20221208212623 57 34 19.0 24.0 0.00 0.11 0.00 77 1021.9
20221208211622 57 32 20.0 25.0 0.00 0.11 0.00 78 1021.9
20221208211123 57 37 17.0 23.0 0.00 0.11 0.00 78 1022.2
20221208205621 57 20 18.0 23.0 0.00 0.11 0.00 78 1022.3
20221208205122 57 34 16.0 24.0 0.00 0.11 0.00 79 1022.2
20221208203621 57 28 19.0 24.0 0.00 0.11 0.00 80 1021.8
20221208203121 57 44 20.0 24.0 0.00 0.11 0.00 80 1021.7
20221208201622 57 45 19.0 24.0 0.00 0.11 0.00 80 1021.9
20221208200622 57 38 17.0 23.0 0.00 0.11 0.00 80 1021.7
20221208195620 58 30 16.0 24.0 0.00 0.11 0.00 81 1021.7
20221208194621 58 31 16.0 23.0 0.00 0.11 0.00 81 1021.7
20221208193620 58 13 16.0 23.0 0.00 0.11 0.00 82 1021.4
20221208192621 58 17 17.0 23.0 0.00 0.11 0.00 82 1021.3
20221208191621 58 17 19.0 23.0 0.00 0.11 0.00 82 1021.6
20221208190620 58 13 17.0 22.0 0.00 0.11 0.00 83 1021.8
20221208190122 58 33 17.0 23.0 0.00 0.11 0.00 84 1021.9
20221208184621 58 25 16.0 25.0 0.00 0.11 0.00 84 1022.0
20221208183622 58 30 18.0 25.0 0.00 0.11 0.00 84 1021.9
20221208182622 58 42 19.0 23.0 0.00 0.11 0.00 84 1021.9
20221208181622 58 46 18.0 24.0 0.00 0.11 0.00 84 1021.8
20221208180622 58 41 21.0 25.0 0.00 0.11 0.00 84 1021.9
20221208180121 58 44 21.0 25.0 0.00 0.11 0.00 85 1022.1
20221208174620 58 44 19.0 25.0 0.00 0.11 0.00 85 1022.0
20221208173621 58 53 19.0 23.0 0.00 0.11 0.00 86 1021.9
20221208172622 58 39 19.0 23.0 0.00 0.11 0.00 86 1022.1
20221208171620 59 28 19.0 23.0 0.00 0.11 0.00 86 1021.9
20221208170620 59 49 20.0 23.0 0.00 0.11 0.00 87 1021.9
20221208165621 59 44 19.0 24.0 0.00 0.11 0.00 87 1022.2
20221208164620 59 33 19.0 24.0 0.00 0.11 0.00 87 1022.3
20221208163621 58 48 19.0 24.0 0.00 0.11 0.00 88 1022.5
20221208162622 58 44 20.0 25.0 0.00 0.11 0.00 88 1022.5
20221208161616 58 46 21.0 26.0 0.00 0.11 0.00 88 1022.5
20221208161119 58 38 21.0 27.0 0.00 0.11 0.00 89 1022.6
20221208160118 58 51 20.0 25.0 0.00 0.11 0.00 89 1022.6